Home   Weather   Vincennes   Past weeks

Flag for USA Past Weather in Vincennes, Indiana, USA — Yesterday and Last 2 Weeks

Now
40 °F

Overcast.


Feels Like: 38 °F
Forecast: 30 / 46 °F
Wind: 3 mph from Northwest

Location: Lawrenceville-Vincennes International Airport

Current Time: Dec 2, 2016 at 9:31:41 pm

Latest Report: Dec 2, 2016 at 8:53 pm


Visibility: 10 mi

Pressure: 30.35 "Hg

Humidity: 73%

Dew Point: 32 °F

Location of VincennesLocation

Past Weather in Vincennes — Graph

°F

Vincennes Temperature Yesterday

Maximum temperature yesterday: 41 °F (at 10:53 am)
Minimum temperature yesterday: 31 °F (at 10:53 pm)
Average temperature yesterday: 38 °F

High & Low Weather Summary for the Past Weeks

 TemperatureHumidityPressure
High75 °F (Nov 18, 12:53 pm)100% (Nov 23, 1:53 pm)30.45 "Hg (Nov 23, 1:53 pm)
Low23 °F (Nov 21, 6:53 am)44% (Nov 21, 3:53 pm)29.29 "Hg (Nov 28, 8:02 pm)
Average43 °F73%30.09 "Hg
* Reported Nov 17 7:53 pm — Dec 2 7:53 pm, Vincennes, Weather by CustomWeather, © 2016

Note: Actual official high and low records may vary slightly from our data, if they occured in-between our weather recording intervals... More about our weather records

Advertising

Vincennes Weather History for the Previous 24 Hours

Scroll right to see more
 ConditionsComfort  
Time TempWeatherWind HumidityBarometerVisibility
7:53 pm
Fri, Dec 2
41 °FOvercast.7 mph67%30.35 "Hg10 mi
6:53 pm41 °FOvercast.6 mph70%30.33 "Hg10 mi
5:53 pm41 °FOvercast.5 mph70%30.32 "Hg10 mi
4:53 pm42 °FOvercast.6 mph65%30.29 "Hg10 mi
3:53 pm43 °FOvercast.10 mph62%30.29 "Hg10 mi
2:53 pm43 °FOvercast.15 mph60%30.28 "Hg10 mi
1:53 pm44 °FPartly sunny.8 mph60%30.27 "Hg10 mi
12:53 pm43 °FOvercast.10 mph60%30.27 "Hg10 mi
11:53 am42 °FOvercast.12 mph65%30.28 "Hg10 mi
10:53 am39 °FOvercast.10 mph73%30.28 "Hg10 mi
9:53 am35 °FPartly sunny.6 mph82%30.26 "Hg8 mi
8:53 am30 °FIce fog.3 mph92%30.24 "Hg6 mi
7:53 am28 °FIce fog.3 mph93%30.23 "Hg5 mi
6:53 am28 °FClear.No wind89%30.21 "Hg7 mi
5:53 am28 °FClear.No wind89%30.20 "Hg7 mi
4:53 am29 °FClear.No wind89%30.19 "Hg8 mi
3:53 am29 °FClear.No wind89%30.17 "Hg7 mi
2:53 am30 °FClear.No wind89%30.16 "Hg9 mi
1:53 am29 °FClear.5 mph93%30.14 "Hg10 mi
12:53 am30 °FClear.3 mph92%30.13 "Hg9 mi
11:53 pm
Thu, Dec 1
31 °FClear.No wind85%30.12 "Hg10 mi
10:53 pm31 °FClear.No wind85%30.11 "Hg10 mi
9:53 pm34 °FClear.No wind82%30.11 "Hg10 mi
Weather by CustomWeather, © 2016

See weather overviewHow to use our weather pages